Location: ČR
(50.0000°N, 15.0000°E)
Time: 08:33:43
(UTC+00:00)

Transit 2A Rocket - Visible Passes

Search period start: 21 October 2021 00:00
Search period end: 31 October 2021 00:00
Orbit: 584 x 918 km, 66.7° (Epoch: 20 October)

Date Brightness Start Highest point End Pass type
(mag) Time Alt. Az. Time Alt. Az. Time Alt. Az.
21 Oct 7.6 02:44:37 10° S 02:44:37 10° S 02:44:38 10° S visible
21 Oct 5.2 17:11:15 10° SSW 17:16:24 58° ESE 17:22:04 10° NE visible
21 Oct 6.5 18:54:20 10° WSW 18:59:22 36° NW 19:02:39 21° NNE visible
21 Oct 7.7 20:40:00 10° NW 20:42:34 16° NNW 20:42:34 16° NNW visible
22 Oct 5.7 16:29:10 10° S 16:33:57 37° ESE 16:39:09 10° NE visible
22 Oct 5.9 18:11:11 10° WSW 18:16:26 50° NW 18:21:23 14° NNE visible
22 Oct 7.4 19:56:22 10° WNW 20:00:29 20° NNW 20:01:18 19° N visible
23 Oct 5.3 17:28:16 10° SW 17:33:37 73° NW 17:39:30 10° NE visible
23 Oct 7.2 19:12:47 10° W 19:17:18 24° NNW 19:19:56 18° N visible
23 Oct 8.0 20:58:37 10° NW 20:59:50 13° NNW 20:59:50 13° NNW visible
24 Oct 5.1 16:45:38 10° SSW 16:50:56 76° ESE 16:56:46 10° NE visible
24 Oct 6.8 18:29:18 10° W 18:34:11 31° NNW 18:38:30 14° NNE visible
24 Oct 7.6 20:15:08 10° NW 20:18:24 16° NNW 20:18:24 16° NNW visible
25 Oct 6.3 17:46:01 10° WSW 17:51:11 41° NW 17:56:46 10° NNE visible
25 Oct 7.4 19:31:32 10° WNW 19:35:28 18° NNW 19:36:54 17° N visible
25 Oct 8.2 21:16:41 10° NNW 21:16:48 10° NNW 21:16:48 10° NNW visible
26 Oct 5.8 17:02:56 10° SW 17:08:17 57° NW 17:14:07 10° NNE visible
26 Oct 7.3 18:47:54 10° WNW 18:52:13 21° NNW 18:55:23 15° NNE visible
26 Oct 7.9 20:33:34 10° NNW 20:35:17 14° NNW 20:35:17 14° NNW visible
27 Oct 5.3 16:20:07 10° SW 16:25:31 84° NW 16:31:26 10° NE visible
27 Oct 7.0 18:04:21 10° W 18:09:03 26° NNW 18:13:50 11° NNE visible
27 Oct 7.6 19:50:14 10° NW 19:53:43 16° N 19:53:43 16° N visible
28 Oct 6.6 17:20:56 10° W 17:25:59 34° NW 17:31:23 10° NNE visible
28 Oct 7.4 19:06:41 10° NW 19:10:27 17° N 19:12:09 15° N visible
28 Oct 8.1 20:51:25 10° NNW 20:52:01 12° NNW 20:52:01 12° NNW visible
29 Oct 6.1 16:37:43 10° WSW 16:43:00 46° NW 16:48:43 10° NNE visible
29 Oct 7.4 18:23:04 10° WNW 18:27:10 19° NNW 18:30:33 13° NNE visible
29 Oct 7.7 20:08:26 10° NNW 20:10:27 15° NNW 20:10:27 15° NNW visible
30 Oct 7.1 17:39:27 10° WNW 17:43:56 23° NNW 17:48:40 10° NNE visible
30 Oct 7.5 19:25:15 10° NW 19:28:48 16° N 19:28:50 16° N visible
